Retour au catalogue

SL-12 R/B(2)

ActifMEO
NORAD 14264·ROCKET BODY·🇷🇺 Russia

Lancé Aug 10, 1983 depuis Baikonur Cosmodrome

Loading…

Prochains Passages (prochaines 24 heures)

TLE

FraisSource: Space-Track

Époque: Sep 13, 2026, 22:18 UTC

1 14264U 83084F   26256.92919176 -.00000010  00000-0  00000+0 0  9996
2 14264  64.8844  70.5602 0008404 209.5263 178.3582  2.12928034335125

Suivez SL-12 R/B(2) en temps réel avec AllMySat

Download on the App Store